Tracking 30306 objects as of 22-Apr-2025
HD Live streaming from Space Station
objects crossing your sky now

THORAD DELTA 1 DEB

Track THORAD DELTA 1 DEB now!
10-day predictions


NORAD ID: 37148
Int'l Code: 1974-089FH
Perigee: 810.8 km
Apogee: 870.0 km
Inclination: 101.7 °
Period: 101.6 minutes
Semi major axis: 7211 km
RCS: 0.0531 m2 (small)
Launch date: November 15, 1974
Source: United States (US)
Launch site: AIR FORCE WESTERN TEST RANGE (AFWTR)

Note: This is SATELLITE DEBRIS
Your satellite tracking list
Your tracking list is empty




NASA's NSSDC Master Catalog

Two Line Element Set (TLE):
1 37148U 74089FH  25111.58989957  .00037813  00000-0  18359-1 0  9990
2 37148 101.6969 161.1132 0041056 149.6606  13.6190 14.17658944736634
Source of the keplerian elements: AFSPC